Time,TemperatureF,DewpointF,PressureIn,WindDirection,WindDirectionDegrees,WindSpeedMPH,WindSpeedGustMPH,Humidity,HourlyPrecipIn,Conditions,Clouds,dailyrainin,SoftwareType,DateUTC
2013-04-28 00:02:00,57.0,56.0,29.85,ESE,123,0.0,0.0,96,0.00,,,0.01,,2013-04-28 05:02:00,
2013-04-28 00:12:00,57.0,56.0,29.85,ESE,123,0.0,0.0,96,0.00,,,0.01,,2013-04-28 05:12:00,
2013-04-28 00:22:00,57.0,56.0,29.85,SSE,167,0.0,0.0,96,0.00,,,0.01,,2013-04-28 05:22:00,
2013-04-28 00:32:00,57.0,56.0,29.84,WNW,289,0.0,0.0,96,0.00,,,0.01,,2013-04-28 05:32:00,
2013-04-28 00:42:00,57.0,56.0,29.84,WNW,289,0.0,0.0,96,0.00,,,0.01,,2013-04-28 05:42:00,
2013-04-28 00:52:00,57.0,56.0,29.84,WNW,289,0.0,0.0,96,0.00,,,0.01,,2013-04-28 05:52:00,
2013-04-28 01:01:00,57.0,56.0,29.83,WNW,289,0.0,0.0,96,0.00,,,0.01,,2013-04-28 06:01:00,
2013-04-28 01:12:00,57.0,56.0,29.83,WNW,289,0.0,0.0,96,0.00,,,0.01,,2013-04-28 06:12:00,
2013-04-28 01:21:00,57.0,56.0,29.83,WNW,289,0.0,0.0,96,0.00,,,0.01,,2013-04-28 06:21:00,
2013-04-28 01:32:00,57.0,56.0,29.83,WNW,289,0.0,0.0,96,0.00,,,0.01,,2013-04-28 06:32:00,
2013-04-28 01:42:00,57.0,56.0,29.83,WNW,289,0.0,0.0,96,0.00,,,0.01,,2013-04-28 06:42:00,
2013-04-28 01:51:00,57.0,56.0,29.83,WNW,289,0.0,1.0,96,0.00,,,0.01,,2013-04-28 06:51:00,
2013-04-28 02:01:00,57.0,56.0,29.81,WNW,289,1.0,2.0,96,0.00,,,0.01,,2013-04-28 07:01:00,
2013-04-28 02:11:00,57.0,56.0,29.81,WNW,289,1.0,2.0,96,0.00,,,0.01,,2013-04-28 07:11:00,
2013-04-28 02:21:00,57.0,56.0,29.81,South,182,0.0,2.0,96,0.01,,,0.02,,2013-04-28 07:21:00,
2013-04-28 02:31:00,58.0,57.0,29.80,SSE,163,0.0,0.0,96,0.01,,,0.02,,2013-04-28 07:31:00,
2013-04-28 02:42:00,58.0,57.0,29.80,SSE,163,0.0,0.0,96,0.01,,,0.02,,2013-04-28 07:42:00,
2013-04-28 02:52:00,58.0,57.0,29.80,SSE,163,0.0,0.0,96,0.01,,,0.02,,2013-04-28 07:52:00,
2013-04-28 03:02:00,58.0,57.0,29.79,South,179,0.0,3.0,96,0.03,,,0.04,,2013-04-28 08:02:00,
2013-04-28 03:11:00,58.0,57.0,29.79,South,179,0.0,3.0,96,0.03,,,0.04,,2013-04-28 08:11:00,
2013-04-28 03:21:00,58.0,57.0,29.79,South,179,3.0,3.0,96,0.03,,,0.05,,2013-04-28 08:21:00,
2013-04-28 03:32:00,58.0,57.0,29.78,SSE,148,0.0,2.0,96,0.04,,,0.06,,2013-04-28 08:32:00,
2013-04-28 03:42:00,58.0,57.0,29.78,SSE,148,0.0,2.0,96,0.04,,,0.06,,2013-04-28 08:42:00,
2013-04-28 03:52:00,58.0,57.0,29.78,SSE,148,0.0,0.0,97,0.05,,,0.07,,2013-04-28 08:52:00,
2013-04-28 04:01:00,58.0,57.0,29.78,SSE,148,0.0,0.0,97,0.04,,,0.08,,2013-04-28 09:01:00,
2013-04-28 04:11:00,58.0,57.0,29.78,SSE,148,0.0,0.0,97,0.04,,,0.08,,2013-04-28 09:11:00,
2013-04-28 04:21:00,58.0,57.0,29.78,SSE,148,1.0,2.0,97,0.03,,,0.08,,2013-04-28 09:21:00,
2013-04-28 04:33:00,58.0,57.0,29.79,SSE,148,0.0,0.0,97,0.03,,,0.09,,2013-04-28 09:33:00,
2013-04-28 04:42:00,58.0,57.0,29.79,SSE,148,0.0,0.0,97,0.03,,,0.09,,2013-04-28 09:42:00,
2013-04-28 04:53:00,58.0,57.0,29.79,SSE,148,0.0,0.0,97,0.02,,,0.09,,2013-04-28 09:53:00,
2013-04-28 05:03:00,58.0,57.0,29.79,SSE,148,0.0,0.0,97,0.02,,,0.09,,2013-04-28 10:03:00,
2013-04-28 05:12:00,58.0,57.0,29.79,SSE,148,0.0,0.0,97,0.02,,,0.09,,2013-04-28 10:12:00,
2013-04-28 05:22:00,58.0,57.0,29.79,SSE,148,0.0,0.0,97,0.02,,,0.09,,2013-04-28 10:22:00,
2013-04-28 17:03:00,56.0,55.0,29.85,SW,221,1.0,3.0,95,0.00,,,0.08,,2013-04-28 22:03:00,
2013-04-28 17:12:00,56.0,55.0,29.85,SW,221,1.0,3.0,95,0.00,,,0.08,,2013-04-28 22:12:00,
2013-04-28 17:23:00,56.0,55.0,29.85,West,268,3.0,4.0,95,0.00,,,0.08,,2013-04-28 22:23:00,
2013-04-28 17:33:00,56.0,54.0,29.85,West,281,3.0,3.0,94,0.00,,,0.08,,2013-04-28 22:33:00,
2013-04-28 17:42:00,56.0,54.0,29.85,West,281,3.0,3.0,94,0.00,,,0.08,,2013-04-28 22:42:00,
2013-04-28 17:52:00,56.0,54.0,29.85,WNW,300,2.0,2.0,94,0.00,,,0.08,,2013-04-28 22:52:00,
2013-04-28 18:02:00,57.0,55.0,29.85,West,272,3.0,3.0,93,0.00,,,0.08,,2013-04-28 23:02:00,
2013-04-28 18:12:00,57.0,55.0,29.85,West,272,3.0,3.0,93,0.00,,,0.08,,2013-04-28 23:12:00,
2013-04-28 18:22:00,57.0,55.0,29.85,WNW,286,1.0,1.0,93,0.00,,,0.08,,2013-04-28 23:22:00,
2013-04-28 18:32:00,57.0,55.0,29.86,West,279,0.0,2.0,92,0.00,,,0.08,,2013-04-28 23:32:00,
2013-04-28 18:42:00,57.0,55.0,29.86,West,279,0.0,2.0,92,0.00,,,0.08,,2013-04-28 23:42:00,
2013-04-28 18:52:00,58.0,56.0,29.86,SSW,194,0.0,2.0,92,0.00,,,0.08,,2013-04-28 23:52:00,
2013-04-28 19:01:00,58.0,56.0,29.85,SSW,194,0.0,0.0,92,0.00,,,0.08,,2013-04-29 00:01:00,
2013-04-28 19:11:00,58.0,56.0,29.85,SSW,194,0.0,0.0,92,0.00,,,0.08,,2013-04-29 00:11:00,
2013-04-28 19:22:00,58.0,56.0,29.85,SSW,194,0.0,0.0,92,0.00,,,0.08,,2013-04-29 00:22:00,
2013-04-28 19:32:00,58.0,55.0,29.85,West,281,3.0,3.0,91,0.00,,,0.08,,2013-04-29 00:32:00,
2013-04-28 19:41:00,58.0,55.0,29.85,West,281,3.0,3.0,91,0.00,,,0.08,,2013-04-29 00:41:00,
2013-04-28 19:52:00,58.0,55.0,29.85,West,263,0.0,1.0,91,0.00,,,0.08,,2013-04-29 00:52:00,
2013-04-28 20:01:00,58.0,55.0,29.86,West,265,0.0,1.0,90,0.00,,,0.08,,2013-04-29 01:01:00,
2013-04-28 20:12:00,57.0,54.0,29.86,WNW,298,0.0,2.0,90,0.00,,,0.08,,2013-04-29 01:12:00,
2013-04-28 20:21:00,57.0,54.0,29.86,WNW,298,0.0,2.0,90,0.00,,,0.08,,2013-04-29 01:21:00,
2013-04-28 20:32:00,57.0,54.0,29.87,WNW,298,0.0,0.0,89,0.00,,,0.08,,2013-04-29 01:32:00,
2013-04-28 20:42:00,57.0,54.0,29.87,WNW,298,0.0,0.0,89,0.00,,,0.08,,2013-04-29 01:42:00,
2013-04-28 20:52:00,57.0,54.0,29.87,WNW,298,0.0,0.0,90,0.00,,,0.08,,2013-04-29 01:52:00,
2013-04-28 21:02:00,57.0,54.0,29.89,WNW,297,0.0,0.0,90,0.00,,,0.08,,2013-04-29 02:02:00,
2013-04-28 21:11:00,57.0,54.0,29.89,WNW,297,0.0,0.0,90,0.00,,,0.08,,2013-04-29 02:11:00,
2013-04-28 21:21:00,57.0,54.0,29.89,WNW,294,0.0,0.0,90,0.00,,,0.08,,2013-04-29 02:21:00,
2013-04-28 21:32:00,57.0,54.0,29.89,South,186,0.0,0.0,90,0.00,,,0.08,,2013-04-29 02:32:00,
2013-04-28 21:41:00,57.0,54.0,29.89,South,186,0.0,0.0,90,0.00,,,0.08,,2013-04-29 02:41:00,
2013-04-28 21:51:00,57.0,54.0,29.89,South,186,0.0,0.0,90,0.00,,,0.08,,2013-04-29 02:51:00,
2013-04-28 22:01:00,57.0,54.0,29.90,South,187,0.0,0.0,91,0.00,,,0.08,,2013-04-29 03:01:00,
2013-04-28 22:12:00,57.0,54.0,29.90,South,187,0.0,0.0,91,0.00,,,0.08,,2013-04-29 03:12:00,
2013-04-28 22:21:00,56.0,53.0,29.90,South,187,0.0,0.0,91,0.00,,,0.08,,2013-04-29 03:21:00,
2013-04-28 22:33:00,56.0,53.0,29.90,South,187,0.0,0.0,91,0.00,,,0.08,,2013-04-29 03:33:00,
2013-04-28 22:42:00,56.0,53.0,29.90,South,187,0.0,0.0,91,0.00,,,0.08,,2013-04-29 03:42:00,
2013-04-28 22:52:00,56.0,54.0,29.90,South,187,0.0,0.0,92,0.00,,,0.08,,2013-04-29 03:52:00,
2013-04-28 23:03:00,56.0,54.0,29.90,South,187,0.0,0.0,92,0.00,,,0.08,,2013-04-29 04:03:00,
2013-04-28 23:13:00,56.0,54.0,29.90,South,187,0.0,0.0,92,0.00,,,0.08,,2013-04-29 04:13:00,
2013-04-28 23:23:00,56.0,54.0,29.90,South,187,0.0,0.0,92,0.00,,,0.08,,2013-04-29 04:23:00,
2013-04-28 23:33:00,56.0,54.0,29.90,SSW,211,2.0,2.0,92,0.00,,,0.08,,2013-04-29 04:33:00,
2013-04-28 23:43:00,56.0,54.0,29.90,SSW,211,2.0,2.0,92,0.00,,,0.08,,2013-04-29 04:43:00,
2013-04-28 23:52:00,56.0,54.0,29.90,SSW,211,0.0,0.0,92,0.00,,,0.08,,2013-04-29 04:52:00,